Location: Ravensburg
(47.7866°N, 9.6124°E)
Time: 02:17:37
(UTC+02:00)

CAS-6 - Pass Details

Date: 11 March 2026
Orbit: 601 x 618 km, 97.8° (Epoch: 14 April)

Event Time Altitude Azimuth Distance (km) Brightness Sun altitude
Exits shadow 21:26:30 12° 9° (N) 1,810 ? -30.6°
Drops below altitude 10° 21:26:54 10° 6° (N) 1,956 ? -30.6°
Sets 21:29:16 0° 356° (N) 2,865 ? -31.0°
